Date String (YYYY-MM-DD hh:mm:ss) UTC,Instrument flags,Ambient pressure (hPa),Sample flow (lpm),Bypass flow (lpm),Sample temperature (°C),Ambient temperature (°C),ASC tube jacket temperature (°C),LED temperature (°C),Box temperature (°C),Sample RH (%),Span deviation,Mass concentration (μg/m³),Mass concentration (μg/m³),Mass concentration (μg/m³)
DateTimeUTC,F1_M11,P_M11,Q1_M11,Q2_M11,T1_M11,T2_M11,T3_M11,T4_M11,T5_M11,U1_M11,ZSPAN_M11,X2_M11,X0_M11,X1_M11
2022-06-06 07:00:00,,0821.1,5.00,0.00,29.9,27.5,00.0,38.8,31.5,28.5,0000.0,0004.40,0010.41,0003.01
2022-06-06 07:01:00,,0821.1,5.00,0.00,29.8,27.5,00.0,38.8,31.4,28.0,0000.0,0004.29,0010.18,0002.98
2022-06-06 07:02:00,,0821.1,4.98,0.00,29.8,27.6,00.0,38.8,31.4,27.6,0000.0,0004.25,0010.09,0002.96
2022-06-06 07:03:00,,0821.1,5.01,0.00,29.7,27.8,00.0,38.7,31.4,28.1,0000.0,0004.25,0010.12,0002.95
2022-06-06 07:04:00,,0821.1,4.99,0.00,29.7,27.9,00.0,38.7,31.5,28.5,0000.0,0004.20,0009.99,0002.95
2022-06-06 07:05:00,,0821.1,5.01,0.00,29.7,28.0,00.0,38.7,31.5,28.7,0000.0,0004.23,0010.14,0002.95
2022-06-06 07:06:00,,0821.2,5.00,0.00,29.7,28.1,00.0,38.7,31.5,28.7,0000.0,0004.18,0010.01,0002.93
2022-06-06 07:07:00,,0821.2,5.00,0.00,29.7,28.2,00.0,38.7,31.5,28.7,0000.0,0004.18,0010.00,0002.92
2022-06-06 07:08:00,,0821.2,5.00,0.00,29.7,28.3,00.0,38.7,31.5,28.3,0000.0,0004.20,0010.29,0002.93
2022-06-06 07:09:00,,0821.2,5.01,0.00,29.7,28.4,00.0,38.7,31.5,28.1,0000.0,0004.17,0010.14,0002.91
2022-06-06 07:10:00,,0821.2,4.98,0.00,29.7,28.4,00.0,38.6,31.5,28.0,0000.0,0004.16,0010.14,0002.90
2022-06-06 07:11:00,,0821.2,4.99,0.00,29.7,28.5,00.0,38.6,31.6,27.9,0000.0,0004.14,0009.57,0002.91
2022-06-06 07:12:00,,0821.2,5.01,0.00,29.7,28.5,00.0,38.6,31.6,27.6,0000.0,0004.13,0009.48,0002.91
2022-06-06 07:13:00,,0821.2,4.99,0.00,29.7,28.6,00.0,38.6,31.6,27.6,0000.0,0004.11,0009.46,0002.89
2022-06-06 07:14:00,,0821.2,4.99,0.00,29.7,28.6,00.0,38.7,31.6,27.3,0000.0,0004.11,0009.53,0002.88
2022-06-06 07:15:00,,0821.2,5.01,0.00,29.8,28.7,00.0,38.7,31.6,27.2,0000.0,0004.14,0009.95,0002.86
2022-06-06 07:16:00,,0821.1,4.99,0.00,29.8,28.7,00.0,38.7,31.7,27.0,0000.0,0004.08,0009.78,0002.84
2022-06-06 07:17:00,,0821.1,4.99,0.00,29.8,28.7,00.0,38.7,31.7,26.9,0000.0,0004.06,0010.44,0002.81
2022-06-06 07:18:00,,0821.1,5.00,0.00,29.8,28.8,00.0,38.7,31.7,26.9,0000.0,0004.07,0010.94,0002.78
2022-06-06 07:19:00,,0821.1,5.00,0.00,29.8,28.8,00.0,38.7,31.7,27.0,0000.0,0004.09,0011.06,0002.77
2022-06-06 07:20:00,,0821.2,5.00,0.00,29.8,28.8,00.0,38.7,31.7,26.9,0000.0,0004.14,0011.11,0002.76
2022-06-06 07:21:00,,0821.3,5.01,0.00,29.8,28.8,00.0,38.7,31.7,26.6,0000.0,0004.18,0011.69,0002.75
2022-06-06 07:22:00,,0821.3,4.99,0.00,29.9,28.9,00.0,38.7,31.8,26.5,0000.0,0004.16,0012.26,0002.72
2022-06-06 07:23:00,,0821.3,5.00,0.00,29.9,28.9,00.0,38.7,31.8,27.0,0000.0,0004.21,0012.33,0002.75
2022-06-06 07:24:00,,0821.3,5.01,0.00,29.9,28.9,00.0,38.7,31.8,27.3,0000.0,0004.23,0012.52,0002.77
2022-06-06 07:25:00,,0821.3,5.00,0.00,29.9,28.9,00.0,38.7,31.8,27.4,0000.0,0004.23,0012.74,0002.79
2022-06-06 07:26:00,,0821.3,4.99,0.00,29.9,28.9,00.0,38.8,31.8,27.6,0000.0,0004.21,0012.42,0002.80
2022-06-06 07:27:00,,0821.3,4.99,0.00,29.9,28.9,00.0,38.8,31.8,27.0,0000.0,0004.22,0012.43,0002.81
2022-06-06 07:28:00,,0821.3,5.01,0.00,29.9,28.9,00.0,38.8,31.8,26.7,0000.0,0004.26,0011.92,0002.84
2022-06-06 07:29:00,,0821.3,5.01,0.00,29.9,29.0,00.0,38.8,31.8,26.5,0000.0,0004.29,0011.66,0002.87
2022-06-06 07:30:00,,0821.3,4.99,0.00,30.0,29.0,00.0,38.8,31.9,26.3,0000.0,0004.29,0011.22,0002.88
2022-06-06 07:31:00,,0821.2,4.99,0.00,30.0,29.0,00.0,38.8,31.9,26.0,0000.0,0004.28,0011.07,0002.90
2022-06-06 07:32:00,,0821.2,5.01,0.00,30.0,29.0,00.0,38.8,31.9,25.9,0000.0,0004.22,0010.85,0002.92
2022-06-06 07:33:00,,0821.2,5.00,0.00,30.0,29.0,00.0,38.8,31.9,25.8,0000.0,0004.23,0010.36,0002.93
2022-06-06 07:34:00,,0821.2,5.00,0.00,30.0,29.0,00.0,38.8,31.9,25.7,0000.0,0004.27,0010.97,0002.93
2022-06-06 07:35:00,,0821.2,5.01,0.00,30.0,29.0,00.0,38.9,31.9,26.0,0000.0,0004.28,0011.40,0002.91
2022-06-06 07:36:00,,0821.2,4.99,0.00,30.0,29.1,00.0,38.9,31.9,26.5,0000.0,0004.31,0011.10,0002.89
2022-06-06 07:37:00,,0821.2,5.00,0.00,30.0,29.1,00.0,38.9,31.9,26.4,0000.0,0004.32,0011.16,0002.89
2022-06-06 07:38:00,,0821.2,5.01,0.00,30.0,29.1,00.0,38.9,31.9,26.1,0000.0,0004.35,0011.17,0002.89
2022-06-06 07:39:00,,0821.2,5.01,0.00,30.0,29.1,00.0,38.9,31.9,25.9,0000.0,0004.34,0011.15,0002.89
2022-06-06 07:40:00,,0821.3,4.98,0.00,30.1,29.1,00.0,38.9,32.0,25.9,0000.0,0004.32,0011.23,0002.89
2022-06-06 07:41:00,,0821.3,4.99,0.00,30.1,29.1,00.0,38.9,32.0,26.0,0000.0,0004.32,0011.50,0002.89
2022-06-06 07:42:00,,0821.3,5.01,0.00,30.1,29.1,00.0,38.9,32.0,25.9,0000.0,0004.36,0011.99,0002.89
2022-06-06 07:43:00,,0821.3,5.00,0.00,30.1,29.1,00.0,38.9,32.0,25.8,0000.0,0004.35,0011.93,0002.89
2022-06-06 07:44:00,,0821.3,5.00,0.00,30.1,29.1,00.0,39.0,32.0,25.7,0000.0,0004.38,0011.67,0002.88
2022-06-06 07:45:00,,0821.4,4.99,0.00,30.1,29.1,00.0,39.0,32.0,25.6,0000.0,0004.38,0011.33,0002.88
2022-06-06 07:46:00,,0821.3,5.01,0.00,30.1,29.2,00.0,39.0,32.0,25.4,0000.0,0004.40,0011.24,0002.88
2022-06-06 07:47:00,,0821.3,5.00,0.00,30.1,29.2,00.0,39.0,32.0,25.4,0000.0,0004.36,0011.07,0002.88
2022-06-06 07:48:00,,0821.3,4.99,0.00,30.1,29.2,00.0,39.0,32.0,25.4,0000.0,0004.39,0011.43,0002.89
2022-06-06 07:49:00,,0821.3,5.00,0.00,30.1,29.2,00.0,39.0,32.0,25.3,0000.0,0004.42,0011.64,0002.90
2022-06-06 07:50:00,,0821.3,5.01,0.00,30.2,29.2,00.0,39.0,32.0,25.2,0000.0,0004.40,0011.95,0002.90
2022-06-06 07:51:00,,0821.3,4.99,0.00,30.2,29.2,00.0,39.0,32.0,25.1,0000.0,0004.46,0012.08,0002.92
2022-06-06 07:52:00,,0821.3,5.00,0.00,30.2,29.2,00.0,39.0,32.0,25.0,0000.0,0004.45,0011.65,0002.93
2022-06-06 07:53:00,,0821.4,5.02,0.00,30.2,29.2,00.0,39.0,32.0,25.1,0000.0,0004.38,0011.14,0002.94
2022-06-06 07:54:00,,0821.4,4.99,0.00,30.2,29.2,00.0,39.0,32.1,25.1,0000.0,0004.41,0010.99,0002.93
2022-06-06 07:55:00,,0821.4,5.01,0.00,30.2,29.2,00.0,39.1,32.1,25.1,0000.0,0004.39,0011.22,0002.91
2022-06-06 07:56:00,,0821.4,5.01,0.00,30.2,29.2,00.0,39.1,32.1,25.1,0000.0,0004.31,0011.04,0002.85
2022-06-06 07:57:00,,0821.4,4.99,0.00,30.2,29.2,00.0,39.1,32.1,25.1,0000.0,0004.29,0010.76,0002.84
2022-06-06 07:58:00,,0821.4,5.00,0.00,30.2,29.2,00.0,39.1,32.1,25.2,0000.0,0004.30,0010.85,0002.82
2022-06-06 07:59:00,,0821.3,5.01,0.00,30.2,29.2,00.0,39.1,32.1,25.2,0000.0,0004.26,0010.37,0002.81
